Regional Weather Roundup
Issued by NWS

Home | Current Version | Previous Version | Graphics & Text | Print | Product List | Glossary On
Versions: 1 2 3 4 5 6 7 8 9 10 11 12 13 14 15 16 17 18 19 20 21 22 23 24 25 26 27 28 29 30 31 32 33 34 35 36 37 38 39 40 41 42 43 44 45 46 47 48 49 50
743
ASUS43 KLMK 120902
RWRKY
KENTUCKY REGIONAL WEATHER ROUNDUP
NATIONAL WEATHER SERVICE LOUISVILLE KY
400 AM EST TUE DEC 12 2017

NOTE "FAIR" INDICATES FEW OR NO CLOUDS BELOW 12,000 FEET
WITH NO SIGNIFICANT WEATHER AND/OR OBSTRUCTIONS TO VISIBILITY.

KYZ001>023-026-027-061>063-070>075-121000-
WESTERN AND SOUTH CENTRAL KENTUCKY

CITY           SKY/WX    TMP DP  RH WIND       PRES   REMARKS
PADUCAH        CLOUDY    45  31  58 NW18G30   30.02R
HENDERSON      CLOUDY    40  34  79 NW12G24   30.00R WCI  33
OWENSBORO      CLOUDY    40  33  76 NW17G30   29.97R WCI  31
HOPKINSVILLE   CLOUDY    45  33  63 NW16G25   29.96R
BOWLING GREEN  CLOUDY    45  33  63 NW9       29.93R
GLASGOW        NOT AVBL
$$

KYZ024-025-028>034-038-045-046-053-121000-
NORTH CENTRAL KENTUCKY

CITY           SKY/WX    TMP DP  RH WIND       PRES   REMARKS
LOUISVILLE/SDF CLOUDY    40  31  70 NW16G30   29.89R WCI  31
LOUISVILLE/LOU CLOUDY    40  32  73 W13G24    29.88R WCI  32
FORT KNOX      CLOUDY    40  31  70 NW12      29.88R WCI  33
$$

KYZ035>037-039>044-047>052-055>060-089>105-121000-
NORTHEAST KENTUCKY

CITY           SKY/WX    TMP DP  RH WIND       PRES   REMARKS
LEXINGTON      CLOUDY    41  29  62 W16G28    29.83R
COVINGTON      CLOUDY    36  30  79 NW16      29.80S WCI  26
FRANKFORT      CLOUDY    41  27  57 NW10G21   29.83R
$$

KYZ054-064>069-076>088-106>120-121000-
SOUTHEAST KENTUCKY

CITY           SKY/WX    TMP DP  RH WIND       PRES   REMARKS
JACKSON        CLOUDY    42  28  57 VRB5G22   29.79S
LONDON         MOCLDY    42  28  57 W9G20     29.83S
SOMERSET       NOT AVBL
MIDDLESBORO    PTCLDY    45  28  52 W8G16     29.83F
MONTICELLO     CLOUDY    43  31  62 NW16G23   29.88S
$$





USA.gov is the U.S. government's official web portal to all federal, state and local government web resources and services.